SCP
3 3 3 2 2 2 2 2 2 3 4 3 2 2 2 2 1 1 1 1 1 0 0 0 0 0 0 0 0 0 0 0 0 0 0 0 0 0 0 0 0 0 0
3 3 2 2 2 2 2 2 2 2 3 3 2 2 2 2 1 1 1 1 1 0 0 0 0 0 0 0 0 0 0 0 0 0 0 0 0 0 0 0 0 0 0
2 2 2 2 2 2 2 2 2 2 2 2 2 2 2 1 1 1 1 0 0 0 0 0 0 0 0 0 0 0 0 0 0 0 0 0 0 0 0 0 0 0 0
2 2 2 2 2 2 2 2 2 2 2 2 2 2 1 1 1 1 1 0 0 0 0 0 0 0 0 0 0 0 0 0 0 0 0 0 0 0 0 0 0 0 0
2 2 2 2 1 1 2 2 2 3 3 3 2 2 2 1 1 1 1 0 0 0 0 0 0 0 0 0 0 0 0 0 0 0 0 0 0 0 0 0 0 0 0
2 2 2 1 1 1 1 1 2 3 4 4 3 3 2 2 2 2 1 1 0 0 0 0 0 0 0 0 0 0 0 0 0 0 0 0 0 0 0 0 0 0 0
1 1 1 1 1 2 1 1 2 3 4 5 4 4 3 3 3 2 2 1 1 0 0 0 0 0 0 0 0 0 0 0 0 0 0 0 0 0 0 0 0 0 0
1 1 1 1 1 2 2 2 2 3 4 5 5 5 4 4 3 3 2 2 1 0 0 0 0 0 0 0 0 0 0 0 0 0 0 0 0 0 0 0 0 0 0
1 1 1 1 1 1 1 2 2 2 3 3 4 4 5 4 4 4 3 2 1 1 1 1 0 0 0 0 0 0 0 0 0 0 0 0 0 0 0 0 0 0 0
0 1 1 1 1 1 1 2 2 2 2 2 2 3 3 4 5 4 3 2 1 1 1 1 0 0 0 0 0 0 0 0 0 0 0 0 0 0 0 0 0 0 0
0 0 0 1 1 1 1 2 2 2 2 1 1 1 1 2 3 4 3 2 1 1 1 1 1 0 0 0 0 0 0 0 0 0 0 0 0 0 0 0 0 0 0
0 0 0 0 0 1 1 2 2 2 2 2 1 1 1 1 2 3 2 1 1 1 1 1 0 0 0 0 0 0 0 0 0 0 0 0 0 0 0 0 0 0 0
0 0 0 0 0 0 1 1 2 2 2 2 2 1 1 1 1 1 1 1 1 1 1 1 0 0 0 0 0 0 0 0 0 0 0 0 0 0 0 0 0 0 0
0 0 0 0 0 0 1 1 1 2 2 2 2 1 1 1 1 0 0 1 1 1 1 1 1 0 0 0 0 0 0 0 0 0 0 0 0 0 0 0 0 0 0
1 0 0 0 0 0 0 1 1 1 2 2 2 2 1 1 1 0 1 1 1 1 1 1 0 0 0 0 0 0 0 0 0 0 0 0 0 0 0 0 0 0 0
1 1 1 1 0 0 0 1 1 1 2 2 2 2 2 1 1 1 1 1 2 1 1 1 0 0 0 0 0 0 0 0 0 0 0 0 0 0 0 0 0 0 0
2 1 1 1 1 1 1 1 1 1 2 2 2 2 2 2 1 1 1 2 2 1 1 1 0 0 0 0 0 0 0 0 0 0 0 0 0 0 0 0 0 0 0
2 1 1 1 1 1 1 1 1 1 2 2 2 3 3 2 2 1 1 1 1 1 1 1 0 0 0 0 0 0 0 0 0 0 0 0 0 0 0 0 0 0 0
1 1 1 1 1 1 1 1 1 1 2 2 2 2 3 3 2 2 1 1 1 1 1 1 1 0 0 0 0 0 0 0 0 0 0 0 0 0 0 0 0 0 0
1 1 1 1 1 1 1 1 2 2 1 1 1 1 2 2 2 2 1 1 1 1 1 1 1 1 0 0 0 0 0 0 0 0 0 0 0 0 0 0 0 0 0
0 1 1 1 1 1 1 1 1 1 1 1 1 1 1 1 2 2 2 1 1 1 1 1 1 1 0 0 0 0 0 0 0 0 0 0 0 0 0 0 0 0 0
0 0 1 1 0 0 0 1 1 1 1 0 0 0 1 1 1 1 2 2 2 1 1 1 1 0 0 0 0 0 0 0 0 0 0 0 0 0 0 0 0 0 0
0 0 0 0 0 0 0 0 0 0 0 0 0 0 0 0 1 1 1 2 2 1 1 1 1 0 0 0 0 0 0 0 0 0 0 0 0 0 0 0 0 0 0
0 0 0 0 0 0 0 0 0 0 0 0 0 0 0 0 0 1 1 1 1 1 1 1 1 1 1 0 0 0 0 0 0 0 0 0 0 0 0 0 0 0 0
0 0 0 0 0 0 0 0 0 0 0 0 0 0 0 0 0 0 0 0 0 0 1 1 1 1 0 0 0 0 0 0 0 0 0 0 0 0 0 0 0 0 0
0 0 0 0 0 0 0 0 0 0 0 0 0 0 0 0 0 0 0 0 0 0 0 0 0 0 0 0 0 0 0 0 0 0 0 0 0 0 0 0 0 0 0
Wind_Speed
4 5 6 8 9 9 9 9 9 8 7 6 5 4 4 3 3 3 5 5 5 6 5 4 4 3 3 2 3 2 3 3 2 3 3 3 4 4 3 2 2 2 2
5 6 6 7 8 9 9 9 10 9 9 6 5 3 4 3 3 3 4 5 5 5 5 5 4 3 3 3 2 2 2 2 2 2 3 2 3 3 4 3 3 3 2
8 8 7 8 8 9 9 9 9 9 8 7 5 5 4 3 3 3 2 3 5 5 5 5 4 4 3 3 2 2 3 3 2 2 3 3 2 1 3 3 3 3 2
7 7 8 8 9 9 8 8 8 8 8 9 8 9 6 5 4 4 3 3 4 4 5 5 5 4 3 3 2 2 2 3 2 1 2 2 3 3 1 2 2 3 2
8 8 9 9 8 8 8 8 8 8 8 8 9 8 6 4 4 4 5 3 3 3 5 5 5 4 3 3 3 3 2 2 3 2 2 2 2 2 2 0 2 2 2
7 7 6 6 6 7 7 8 9 8 8 9 8 8 8 7 7 5 5 4 2 2 4 5 4 4 4 4 4 3 3 3 3 2 2 3 2 2 2 2 1 1 2
7 7 7 7 8 9 9 9 10 8 9 9 8 8 8 9 9 7 7 5 3 3 4 5 5 4 4 4 4 3 3 3 3 3 2 2 2 2 3 3 1 0 1
7 8 8 8 8 9 9 9 10 9 9 9 8 7 8 6 5 7 6 7 5 5 5 6 6 5 5 5 4 3 3 3 3 3 3 2 2 2 2 3 3 1 1
7 8 8 7 8 8 9 9 10 8 8 8 8 7 8 7 7 7 6 6 5 5 6 6 6 6 6 5 5 3 3 3 3 3 3 2 2 2 2 2 3 3 2
6 7 7 7 7 8 8 8 9 9 8 8 8 7 7 8 7 7 8 7 6 5 6 7 6 6 6 6 5 4 3 4 3 2 3 2 2 2 2 2 2 2 3
8 7 7 7 6 6 7 8 8 7 7 8 7 6 7 7 7 7 7 7 6 7 7 7 7 7 7 6 6 5 5 5 4 4 4 4 3 3 2 2 2 2 3
7 7 7 6 6 7 7 8 8 8 8 7 6 6 6 7 8 8 7 7 7 7 7 7 7 8 7 7 7 7 7 7 6 6 5 5 4 4 3 3 3 3 4
6 6 6 6 7 7 7 8 8 8 7 7 7 6 7 8 8 8 7 7 7 7 7 7 8 8 8 8 8 8 7 7 7 7 7 6 6 5 4 4 4 3 4
5 6 6 6 6 6 7 7 7 7 7 7 8 7 7 8 8 7 7 7 7 7 7 8 8 8 8 8 8 8 7 7 7 7 7 7 7 7 6 5 5 4 4
4 5 5 5 5 5 5 6 7 7 8 8 8 8 7 7 6 6 7 7 7 8 7 7 7 7 6 7 8 8 8 7 7 6 7 7 8 9 7 6 6 5 4
4 4 4 4 4 5 5 5 6 7 8 8 8 7 7 7 7 7 6 6 6 6 6 7 7 7 7 8 11 9 7 7 7 7 7 6 7 9 9 9 8 8 7
5 4 4 3 3 3 4 5 5 6 7 7 7 6 7 7 7 7 6 7 7 6 6 7 7 8 8 10 11 12 8 7 7 7 6 5 6 7 6 7 8 9 10
5 4 3 3 2 2 2 3 4 6 6 6 6 6 6 7 6 6 6 6 5 6 6 6 7 7 8 10 10 11 8 7 7 7 7 6 6 5 6 6 6 6 7
5 4 4 4 4 4 3 5 5 4 4 3 3 4 5 5 5 5 5 5 4 5 5 4 6 6 6 8 9 9 5 5 6 6 6 6 6 6 7 6 6 6 6
7 6 6 7 7 5 5 7 6 6 4 3 2 2 3 4 4 3 3 2 3 3 3 3 3 4 4 4 7 7 4 4 4 3 4 6 7 6 6 6 6 7 6
8 7 8 8 7 6 7 9 8 7 5 5 5 5 4 3 3 2 2 2 2 2 2 1 1 1 1 0 2 4 4 4 4 3 3 3 4 5 6 6 5 7 5
9 8 9 9 8 7 8 10 8 5 6 7 7 6 5 4 3 3 3 3 3 3 2 2 2 1 1 1 1 1 2 2 2 2 2 2 3 4 5 4 5 6 4
8 8 9 10 9 8 8 9 6 5 7 8 7 6 6 6 5 4 4 3 3 2 2 1 1 1 1 1 2 1 1 1 1 1 0 1 1 2 2 3 4 3 2
8 8 10 11 9 9 9 7 6 6 8 9 7 7 6 6 6 5 4 3 3 2 2 1 1 1 1 2 2 1 1 1 0 1 1 1 1 0 1 2 2 1 2
7 8 9 9 8 8 8 8 6 7 9 8 7 6 6 6 6 6 5 5 4 3 2 1 1 1 2 2 2 2 2 1 1 1 1 2 2 2 2 2 2 2 1
7 8 9 8 7 7 8 7 6 7 8 7 6 5 5 4 4 5 6 9 8 10 9 7 4 4 4 4 5 5 4 4 3 2 2 2 2 2 2 3 3 2 3
Wind_Direction
160 155 168 168 164 169 175 177 172 165 156 150 150 150 152 145 141 149 145 143 141 140 133 128 122 121 118 118 116 100 82 59 48 75 44 23 33 45 34 24 35 37 32
164 167 168 171 171 174 175 177 174 168 164 162 154 143 130 129 130 129 131 142 142 143 144 140 138 135 119 109 108 111 104 67 48 107 93 41 10 9 22 22 34 31 34
180 177 176 176 175 180 179 178 171 165 160 148 128 114 95 91 103 118 136 148 148 149 144 147 140 141 134 137 133 130 127 119 58 63 129 135 188 326 351 15 23 18 29
181 180 179 179 182 183 174 168 164 165 157 150 152 153 155 157 167 157 153 143 148 151 150 149 145 145 141 142 148 135 132 132 127 75 58 99 142 138 40 346 359 8 24
181 183 186 183 180 175 171 168 163 166 160 161 162 160 154 144 132 131 140 143 146 155 156 153 149 150 150 150 145 136 134 133 142 144 128 99 73 89 133 181 333 352 357
174 173 176 164 160 164 167 165 167 171 165 164 164 166 159 149 145 150 156 156 149 157 165 159 157 158 158 161 159 152 145 136 132 138 144 150 148 156 144 156 222 306 319
172 167 168 167 166 167 169 168 169 172 169 168 171 174 169 163 165 165 169 166 167 180 187 172 168 168 173 168 157 155 158 154 149 154 155 160 161 150 146 140 153 241 315
173 176 176 171 171 170 168 168 171 171 171 173 177 175 172 169 172 172 171 180 187 188 181 180 179 179 173 170 163 161 170 164 164 166 157 155 167 165 162 155 148 134 332
177 178 173 169 170 169 168 169 167 168 174 176 174 177 177 175 178 176 177 183 186 183 179 182 182 183 177 173 167 174 177 167 174 175 171 167 175 177 178 164 159 156 187
172 175 176 174 173 173 166 163 166 172 172 173 178 183 183 184 179 176 183 185 186 181 176 184 185 184 181 176 173 176 178 173 181 181 178 183 185 177 174 172 170 168 173
177 176 178 177 169 163 161 166 171 168 170 178 181 179 183 185 179 183 190 188 181 180 184 188 186 187 185 180 181 189 182 185 191 190 193 204 190 187 183 174 173 180 174
172 171 168 163 163 168 171 177 179 180 182 178 177 184 184 181 185 191 194 188 185 187 190 187 188 192 191 186 190 198 193 194 199 201 199 211 201 203 198 191 196 198 196
154 153 155 165 174 178 179 182 184 186 179 172 176 185 187 183 189 193 191 189 188 188 188 186 192 195 193 192 197 200 200 203 207 204 204 211 202 213 211 208 210 210 206
152 154 160 167 173 177 180 182 185 181 174 173 180 187 190 191 193 191 189 190 188 188 192 195 199 198 196 197 199 199 202 206 213 213 212 212 207 214 214 215 217 213 211
125 149 158 162 162 167 177 181 183 179 178 179 187 196 193 188 187 189 191 190 191 197 197 198 203 201 197 203 202 203 204 207 215 220 222 221 217 218 214 215 215 208 214
126 122 126 140 155 166 175 181 186 183 176 183 194 193 186 184 189 193 190 188 195 197 193 200 204 204 209 208 202 199 206 208 215 223 226 228 229 229 225 226 220 207 211
113 113 116 128 148 168 177 184 186 172 174 185 190 189 187 190 197 196 191 197 201 198 199 204 206 211 215 207 203 202 202 210 215 220 223 229 229 220 228 233 234 229 227
101 98 100 101 103 117 143 158 154 160 172 184 189 190 189 195 192 185 194 199 194 198 205 208 209 213 219 208 206 205 204 212 219 220 219 226 236 227 220 229 237 241 240
86 81 80 80 75 74 87 101 104 116 132 158 175 178 179 184 180 186 196 194 190 199 204 205 208 211 218 209 208 201 203 216 228 230 229 227 237 238 223 225 240 252 256
74 73 74 73 68 56 78 92 89 89 88 91 102 121 140 154 167 180 184 174 183 203 199 206 209 214 225 214 208 201 202 216 229 233 234 231 233 240 228 226 234 250 262
74 73 73 68 57 58 80 82 77 73 67 67 71 74 86 111 124 122 120 125 141 135 136 135 106 133 176 184 208 203 205 216 224 231 234 235 231 236 235 229 233 246 263
70 68 73 66 52 54 76 78 68 65 72 75 73 69 67 70 78 89 85 91 109 110 109 111 98 76 80 91 75 112 187 224 224 238 245 242 220 224 227 225 238 253 258
73 68 74 68 53 49 63 72 56 59 70 70 65 62 63 60 61 74 78 75 78 94 100 115 115 57 41 48 56 88 162 187 205 242 249 304 270 256 246 245 252 256 244
73 72 74 69 54 47 54 58 55 62 68 66 58 54 58 56 54 55 58 67 61 72 81 93 87 59 51 42 35 41 57 49 356 339 359 12 20 339 297 308 296 269 254
71 71 75 71 57 50 50 44 47 65 69 64 58 53 52 56 56 54 47 52 47 51 78 75 81 70 37 17 38 69 55 43 38 56 46 36 19 7 357 345 329 317 297
78 75 71 69 60 56 51 40 42 63 72 65 55 52 53 53 57 63 56 52 57 52 57 64 76 66 66 67 65 63 60 56 76 79 47 19 1 343 328 320 321 316 308